Regional Weather Roundup
Issued by NWS

Home | Current Version | Previous Version | Graphics & Text | Print | Product List | Glossary On
Versions: 1 2 3 4 5 6 7 8 9 10 11 12 13 14 15 16 17 18 19 20 21 22 23 24 25 26 27 28 29 30 31 32 33 34 35 36 37 38 39 40 41 42 43 44 45 46 47 48 49 50
000
ASUS43 KLMK 030402
RWRKY
KENTUCKY REGIONAL WEATHER ROUNDUP
NATIONAL WEATHER SERVICE LOUISVILLE KY
1200 AM EDT WED JUN 03 2015

NOTE "FAIR" INDICATES FEW OR NO CLOUDS BELOW 12,000 FEET
WITH NO SIGNIFICANT WEATHER AND/OR OBSTRUCTIONS TO VISIBILITY.

KYZ001>023-026-027-061>063-070>075-030500-
WESTERN AND SOUTH CENTRAL KENTUCKY

CITY           SKY/WX    TMP DP  RH WIND       PRES   REMARKS
PADUCAH        CLOUDY    63  58  83 NE3       30.06S
HENDERSON      CLEAR     55  54  94 CALM      30.06F
OWENSBORO      CLEAR     60  56  87 CALM      30.08S
HOPKINSVILLE   CLOUDY    62  59  90 N3        30.06R
BOWLING GREEN  CLOUDY    63  56  78 NE9       30.07S
GLASGOW        NOT AVBL
$$

KYZ024-025-028>034-038-045-046-053-030500-
NORTH CENTRAL KENTUCKY

CITY           SKY/WX    TMP DP  RH WIND       PRES   REMARKS
LOUISVILLE/SDF CLOUDY    62  52  69 NE9       30.10S
LOUISVILLE/LOU CLOUDY    62  52  69 E6        30.10S
FORT KNOX      PTCLDY    58  53  84 E8        30.08S
$$

KYZ035>037-039>044-047>052-055>060-089>105-030500-
NORTHEAST KENTUCKY

CITY           SKY/WX    TMP DP  RH WIND       PRES   REMARKS
LEXINGTON      CLOUDY    59  53  80 E7        30.10F
COVINGTON      CLOUDY    59  53  80 N3        30.11S
FRANKFORT      CLOUDY    60  53  77 N3        30.09F
$$

KYZ054-064>069-076>088-106>120-030500-
SOUTHEAST KENTUCKY

CITY           SKY/WX    TMP DP  RH WIND       PRES   REMARKS
JACKSON        CLOUDY    57  55  93 CALM      30.09S FOG
LONDON         CLOUDY    60  54  80 N8        30.08F
SOMERSET       NOT AVBL
MIDDLESBORO    NOT AVBL
MONTICELLO     CLOUDY    61  58  90 NE6       30.10S
$$




USA.gov is the U.S. government's official web portal to all federal, state and local government web resources and services.